Location: Brede
(50.9167°N, 0.6000°E)
Time: 21:51:16
(UTC+00:00)

Explorer 7 - Pass Details

Date: 07 August 2021
Orbit: 484 x 676 km, 50.3° (Epoch: 17 September)

Event Time Altitude Azimuth Distance (km) Brightness Sun altitude
Exits shadow 02:24:28 17° 159° (SSE) 1,285 8.4 -16.0°
Maximum altitude 02:25:15 18° 142° (SE) 1,244 8.5 -15.9°
Drops below altitude 10° 02:27:54 10° 98° (E) 1,686 9.7 -15.6°
Sets 02:30:36 0° 79° (E) 2,594 11.0 -15.4°
